Home   Weather   Cuzco   Past weeks

Flag for Peru Past Weather in Cuzco, Cusco, Peru — Yesterday and Last 2 Weeks

Now
61 °F

Scattered showers. Broken clouds.


Feels Like: 61 °F
Forecast: 45 / 62 °F
Wind: 16 mph from West

Location: Cuzco Airport

Current Time: Apr 23, 2017 at 1:04:50 pm

Latest Report: Apr 23, 2017 at 12:30 pm


Visibility: N/A

Pressure: 30.45 "Hg (20.42 "Hg at 3379m altitude)

Humidity: 45%

Dew Point: 39 °F

Location of CuzcoLocation

Past Weather in Cuzco — Graph

°F

Cuzco Temperature Yesterday

Maximum temperature yesterday: 68 °F (at 12:30 pm)
Minimum temperature yesterday: 41 °F (at 5:30 am)
Average temperature yesterday: 55 °F

High & Low Weather Summary for the Past Weeks

 TemperatureHumidityPressure
High72 °F (Apr 10, 1:30 pm)88% (Apr 18, 7:00 pm)30.60 "Hg (Apr 18, 7:00 pm)
Low39 °F (Apr 9, 5:00 am)23% (Apr 19, 3:30 pm)30.30 "Hg (Apr 10, 2:30 pm)
Average56 °F59%30.46 "Hg
* Reported Apr 8 12:00 pm — Apr 23 12:00 pm, Cuzco, Weather by CustomWeather, © 2017

Note: Actual official high and low records may vary slightly from our data, if they occured in-between our weather recording intervals... More about our weather records

Advertising

Cuzco Weather History for the Previous 24 Hours

Scroll right to see more
 ConditionsComfort  
Time TempWeatherWind HumidityBarometerVisibility
12:00 pm
Sun, Apr 23
64 °FBroken clouds.21 mph43%30.48 "HgN/A
11:30 am66 °FBroken clouds.10 mph46%30.51 "HgN/A
11:00 am63 °FScattered clouds.No wind49%30.51 "HgN/A
10:30 am59 °FScattered clouds.2 mph55%30.54 "HgN/A
10:00 am59 °FBroken clouds.2 mph59%30.57 "HgN/A
9:30 am57 °FBroken clouds.6 mph59%30.57 "HgN/A
9:00 am54 °FBroken clouds.6 mph72%30.57 "HgN/A
8:00 am52 °FBroken clouds.1 mph72%30.54 "HgN/A
7:00 am50 °FMore clouds than sun.No wind76%30.51 "HgN/A
6:30 am50 °FMore clouds than sun.2 mph76%30.51 "HgN/A
6:00 am50 °FMore clouds than sun.No wind76%30.48 "HgN/A
5:30 am50 °FPartly cloudy.N/A76%30.48 "HgN/A
5:00 am50 °FPartly cloudy.N/A76%30.48 "HgN/A
4:00 am48 °FPassing clouds.N/A82%30.48 "HgN/A
3:00 am48 °FPassing clouds.N/A82%30.48 "HgN/A
2:00 am50 °FPassing clouds.N/A76%30.48 "HgN/A
1:00 am52 °FPassing clouds.N/A72%30.51 "HgN/A
12:00 am52 °FPassing clouds.N/A72%30.54 "HgN/A
11:00 pm
Sat, Apr 22
50 °FPassing clouds.N/A76%30.51 "HgN/A
10:00 pm54 °FPassing clouds.N/A63%30.51 "HgN/A
9:00 pm54 °FPassing clouds.N/A63%30.51 "HgN/A
8:00 pm55 °FPassing clouds.6 mph59%30.48 "HgN/A
7:00 pm57 °FPassing clouds.3 mph55%30.45 "HgN/A
6:00 pm61 °FPartly cloudy.6 mph48%30.42 "HgN/A
5:30 pm61 °FBroken clouds.3 mph45%30.42 "HgN/A
5:00 pm63 °FBroken clouds.9 mph45%30.39 "HgN/A
4:30 pm63 °FScattered showers. Broken clouds.N/A42%30.39 "HgN/A
4:00 pm66 °FBroken clouds.5 mph35%30.36 "HgN/A
3:30 pm66 °FBroken clouds.8 mph35%30.36 "HgN/A
3:00 pm66 °FBroken clouds.10 mph37%30.39 "HgN/A
2:30 pm66 °FBroken clouds.8 mph35%30.39 "HgN/A
1:30 pm68 °FBroken clouds.3 mph30%30.45 "HgN/A
1:00 pm68 °FBroken clouds.6 mph35%30.45 "HgN/A
Weather by CustomWeather, © 2017

See weather overviewHow to use our weather pages